Zurück zum Katalog

IUS DEB

AktivHEO
NORAD 43367·DEBRIS·🇺🇸 United States

Gestartet Jul 23, 1999 von Cape Canaveral Space Force Station

Loading…

Nächste Überflüge (nächste 24 Stunden)

TLE

AktuellSource: Space-Track

Epoche: Sep 8, 2026, 23:49 UTC

1 43367U 99040Q   26251.99296919  .00000298  00000-0  18700-2 0  9992
2 43367  28.0981 157.4075 3768796 184.8998 170.0579  7.01239055127095

Verfolge IUS DEB in Echtzeit mit AllMySat

Download on the App Store